| time (UTC) | temp F | wind direction | speed knots | gust knots | rain 1hr in | rain 24hr in | rain mn in | humidity % | barometer mb |
| 20260505173039 | 81 | 239 | 7.0 | 12.2 | 0.00 | 0.00 | 0.00 | 41 | 1010.4 |
| 20260505172537 | 81 | 211 | 7.8 | 8.7 | 0.00 | 0.00 | 0.00 | 40 | 1010.5 |
| 20260505172033 | 80 | 278 | 10.4 | 13.0 | 0.00 | 0.00 | 0.00 | 39 | 1010.6 |
| 20260505171528 | 80 | 168 | 2.6 | 2.6 | 0.00 | 0.00 | 0.00 | 40 | 1010.6 |
| 20260505171025 | 81 | 285 | 4.3 | 6.1 | 0.00 | 0.00 | 0.00 | 40 | 1010.5 |
| 20260505170522 | 81 | 165 | 3.5 | 5.2 | 0.00 | 0.00 | 0.00 | 40 | 1010.8 |
| 20260505170018 | 80 | 248 | 6.1 | 7.8 | 0.00 | 0.00 | 0.00 | 39 | 1010.8 |
| 20260505165514 | 80 | 92 | 5.2 | 6.1 | 0.00 | 0.00 | 0.00 | 40 | 1010.7 |
| 20260505165009 | 80 | 163 | 3.5 | 6.1 | 0.00 | 0.00 | 0.00 | 39 | 1010.9 |
| 20260505164506 | 80 | 171 | 7.0 | 12.2 | 0.00 | 0.00 | 0.00 | 41 | 1011.1 |
| 20260505164004 | 80 | 130 | 1.7 | 1.7 | 0.00 | 0.00 | 0.00 | 42 | 1010.9 |
| 20260505163502 | 79 | 153 | 4.3 | 6.1 | 0.00 | 0.00 | 0.00 | 41 | 1011.2 |
| 20260505163002 | 80 | 196 | 3.5 | 3.5 | 0.00 | 0.00 | 0.00 | 41 | 1011.2 |
| 20260505162456 | 80 | 247 | 6.1 | 7.8 | 0.00 | 0.00 | 0.00 | 41 | 1011.3 |
| 20260505161953 | 80 | 203 | 3.5 | 5.2 | 0.00 | 0.00 | 0.00 | 40 | 1011.5 |
| 20260505161450 | 80 | 191 | 1.7 | 2.6 | 0.00 | 0.00 | 0.00 | 43 | 1011.4 |
| 20260505160947 | 79 | 256 | 5.2 | 7.0 | 0.00 | 0.00 | 0.00 | 43 | 1011.6 |
| 20260505160445 | 79 | 243 | 3.5 | 6.1 | 0.00 | 0.00 | 0.00 | 43 | 1011.9 |
| 20260505152922 | 77 | 260 | 4.3 | 5.2 | 0.00 | 0.00 | 0.00 | 47 | 1012.0 |
| 20260505152419 | 77 | 161 | 4.3 | 5.2 | 0.00 | 0.00 | 0.00 | 47 | 1012.1 |
| 20260505151919 | 77 | 94 | 2.6 | 3.5 | 0.00 | 0.00 | 0.00 | 46 | 1011.9 |
| 20260505151415 | 76 | 277 | 1.7 | 3.5 | 0.00 | 0.00 | 0.00 | 47 | 1012.0 |
| 20260505150913 | 76 | 171 | 3.5 | 7.8 | 0.00 | 0.00 | 0.00 | 48 | 1012.2 |
| 20260505150410 | 76 | 217 | 1.7 | 3.5 | 0.00 | 0.00 | 0.00 | 49 | 1012.4 |
| 20260505140334 | 72 | 186 | 5.2 | 6.1 | 0.00 | 0.00 | 0.00 | 54 | 1012.5 |
| 20260505130257 | 65 | 120 | 1.7 | 1.7 | 0.00 | 0.00 | 0.00 | 65 | 1012.9 |
| 20260505124748 | 65 | 167 | 0.9 | 1.7 | 0.00 | 0.00 | 0.00 | 65 | 1012.6 |
| 20260505124245 | 65 | 164 | 3.5 | 3.5 | 0.00 | 0.00 | 0.00 | 65 | 1012.9 |
| 20260505123740 | 65 | 123 | 0.9 | 0.9 | 0.00 | 0.00 | 0.00 | 65 | 1012.9 |
| 20260505123237 | 65 | 152 | 1.7 | 2.6 | 0.00 | 0.00 | 0.00 | 66 | 1012.6 |
| 20260505122734 | 64 | 138 | 0.9 | 0.9 | 0.00 | 0.00 | 0.00 | 67 | 1012.7 |
| 20260505122231 | 64 | 117 | 0.0 | 0.9 | 0.00 | 0.00 | 0.00 | 70 | 1012.7 |
| 20260505121728 | 63 | 107 | 1.7 | 1.7 | 0.00 | 0.00 | 0.00 | 72 | 1012.7 |
| 20260505121224 | 62 | 124 | 1.7 | 1.7 | 0.00 | 0.00 | 0.00 | 74 | 1012.8 |
| 20260505120721 | 60 | 272 | 2.6 | 2.6 | 0.00 | 0.00 | 0.00 | 76 | 1013.1 |
| 20260505120217 | 60 | 124 | 0.9 | 0.9 | 0.00 | 0.00 | 0.00 | 78 | 1013.2 |
| 20260505115715 | 58 | 146 | 0.9 | 0.9 | 0.00 | 0.00 | 0.00 | 78 | 1012.9 |
| 20260505115213 | 58 | 130 | 0.9 | 0.9 | 0.00 | 0.00 | 0.00 | 77 | 1012.8 |
| 20260505114711 | 57 | 111 | 0.0 | 0.9 | 0.00 | 0.00 | 0.00 | 77 | 1012.7 |
| 20260505114206 | 57 | 88 | 0.9 | 0.9 | 0.00 | 0.00 | 0.00 | 75 | 1012.8 |
| 20260505113703 | 58 | 88 | 0.9 | 0.9 | 0.00 | 0.00 | 0.00 | 73 | 1012.6 |
| 20260505113200 | 59 | 116 | 0.9 | 0.9 | 0.00 | 0.00 | 0.00 | 72 | 1012.7 |
| 20260505112656 | 59 | 112 | 0.0 | 0.0 | 0.00 | 0.00 | 0.00 | 72 | 1012.9 |
| 20260505112154 | 59 | 167 | 2.6 | 3.5 | 0.00 | 0.00 | 0.00 | 72 | 1012.8 |
| 20260505111653 | 59 | 165 | 3.5 | 3.5 | 0.00 | 0.00 | 0.00 | 72 | 1012.9 |
| 20260505111149 | 59 | 182 | 2.6 | 2.6 | 0.00 | 0.00 | 0.00 | 71 | 1013.0 |
| 20260505110646 | 58 | 128 | 0.9 | 1.7 | 0.00 | 0.00 | 0.00 | 72 | 1013.1 |
| 20260505110143 | 58 | 169 | 2.6 | 3.5 | 0.00 | 0.00 | 0.00 | 73 | 1013.0 |
| 20260505102119 | 51 | 120 | 0.0 | 0.0 | 0.00 | 0.00 | 0.00 | 85 | 1013.1 |
| 20260505101617 | 50 | 111 | 0.0 | 0.0 | 0.00 | 0.00 | 0.00 | 85 | 1012.8 |
| 20260505101113 | 50 | 105 | 0.0 | 0.0 | 0.00 | 0.00 | 0.00 | 85 | 1012.8 |
| 20260505100610 | 50 | 94 | 0.9 | 0.9 | 0.00 | 0.00 | 0.00 | 84 | 1012.8 |
| 20260505100107 | 51 | 103 | 0.0 | 0.0 | 0.00 | 0.00 | 0.00 | 84 | 1012.7 |
| 20260505095603 | 51 | 107 | 0.0 | 0.0 | 0.00 | 0.00 | 0.00 | 84 | 1012.6 |
| 20260505095059 | 50 | 109 | 0.0 | 0.0 | 0.00 | 0.00 | 0.00 | 84 | 1012.8 |
| 20260505094556 | 50 | 154 | 0.9 | 0.9 | 0.00 | 0.00 | 0.00 | 84 | 1012.6 |
| 20260505094052 | 49 | 103 | 0.0 | 0.0 | 0.00 | 0.00 | 0.00 | 83 | 1012.3 |
| 20260505093549 | 49 | 132 | 0.9 | 0.9 | 0.00 | 0.00 | 0.00 | 83 | 1012.3 |
| 20260505093046 | 49 | 103 | 0.0 | 0.0 | 0.00 | 0.00 | 0.00 | 82 | 1012.2 |
| 20260505092543 | 49 | 116 | 0.0 | 0.0 | 0.00 | 0.00 | 0.00 | 82 | 1012.3 |
| 20260505092042 | 49 | 113 | 0.0 | 0.0 | 0.00 | 0.00 | 0.00 | 82 | 1011.9 |
| 20260505091538 | 49 | 147 | 0.9 | 1.7 | 0.00 | 0.00 | 0.00 | 81 | 1012.1 |
| 20260505091037 | 49 | 100 | 0.0 | 0.9 | 0.00 | 0.00 | 0.00 | 81 | 1012.1 |
| 20260505090534 | 49 | 100 | 0.0 | 0.0 | 0.00 | 0.00 | 0.00 | 80 | 1012.1 |
| 20260505090032 | 50 | 99 | 0.9 | 0.9 | 0.00 | 0.00 | 0.00 | 80 | 1012.3 |
| 20260505085529 | 51 | 105 | 0.9 | 0.9 | 0.00 | 0.00 | 0.00 | 79 | 1012.2 |
| 20260505085027 | 51 | 116 | 0.0 | 0.0 | 0.00 | 0.00 | 0.00 | 79 | 1012.2 |
| 20260505084525 | 51 | 111 | 0.0 | 0.0 | 0.00 | 0.00 | 0.00 | 78 | 1012.4 |
| 20260505084023 | 51 | 117 | 0.0 | 0.0 | 0.00 | 0.00 | 0.00 | 78 | 1012.3 |
| 20260505083520 | 51 | 144 | 0.9 | 0.9 | 0.00 | 0.00 | 0.00 | 78 | 1012.2 |
| 20260505083017 | 51 | 128 | 0.0 | 0.0 | 0.00 | 0.00 | 0.00 | 77 | 1012.4 |
| 20260505082512 | 51 | 133 | 0.9 | 0.9 | 0.00 | 0.00 | 0.00 | 76 | 1012.3 |
| 20260505082009 | 51 | 119 | 0.0 | 0.0 | 0.00 | 0.00 | 0.00 | 76 | 1012.3 |
| 20260505081506 | 52 | 119 | 0.0 | 0.0 | 0.00 | 0.00 | 0.00 | 75 | 1012.4 |
| 20260505081003 | 52 | 119 | 0.0 | 0.0 | 0.00 | 0.00 | 0.00 | 75 | 1012.2 |
| 20260505080500 | 53 | 121 | 0.0 | 0.0 | 0.00 | 0.00 | 0.00 | 74 | 1012.3 |
| 20260505075955 | 53 | 138 | 0.9 | 0.9 | 0.00 | 0.00 | 0.00 | 75 | 1012.4 |
| 20260505075452 | 53 | 108 | 0.0 | 0.9 | 0.00 | 0.00 | 0.00 | 74 | 1012.2 |
| 20260505074949 | 52 | 121 | 0.0 | 0.0 | 0.00 | 0.00 | 0.00 | 74 | 1012.4 |
| 20260505074446 | 52 | 135 | 0.0 | 0.9 | 0.00 | 0.00 | 0.00 | 73 | 1012.5 |
| 20260505073943 | 52 | 126 | 0.0 | 0.0 | 0.00 | 0.00 | 0.00 | 73 | 1012.4 |
| 20260505073441 | 52 | 121 | 0.0 | 0.0 | 0.00 | 0.00 | 0.00 | 72 | 1012.4 |
| 20260505072938 | 53 | 121 | 0.0 | 0.0 | 0.00 | 0.00 | 0.00 | 72 | 1012.4 |
| 20260505072434 | 53 | 131 | 0.0 | 0.0 | 0.00 | 0.00 | 0.00 | 71 | 1012.2 |
| 20260505071930 | 53 | 112 | 0.0 | 0.0 | 0.00 | 0.00 | 0.00 | 70 | 1012.3 |
| 20260505071426 | 53 | 108 | 0.0 | 0.0 | 0.00 | 0.00 | 0.00 | 69 | 1012.4 |
| 20260505070924 | 54 | 108 | 0.0 | 0.0 | 0.00 | 0.00 | 0.00 | 68 | 1012.4 |
| 20260505070421 | 54 | 130 | 0.0 | 0.9 | 0.00 | 0.00 | 0.00 | 67 | 1012.4 |
| 20260505065916 | 55 | 124 | 0.0 | 0.0 | 0.00 | 0.00 | 0.00 | 66 | 1012.2 |
| 20260505065413 | 55 | 123 | 0.0 | 0.0 | 0.00 | 0.00 | 0.00 | 65 | 1012.5 |
| 20260505064910 | 56 | 109 | 0.0 | 0.0 | 0.00 | 0.00 | 0.00 | 63 | 1012.4 |
| 20260505064407 | 57 | 117 | 0.0 | 0.0 | 0.00 | 0.00 | 0.00 | 62 | 1012.3 |
| 20260505063906 | 58 | 113 | 0.0 | 0.0 | 0.00 | 0.00 | 0.00 | 60 | 1012.4 |
| 20260505063402 | 59 | 134 | 0.0 | 0.9 | 0.00 | 0.00 | 0.00 | 59 | 1012.2 |
| 20260505062858 | 59 | 112 | 0.9 | 0.9 | 0.00 | 0.00 | 0.00 | 59 | 1012.4 |
| 20260505062355 | 59 | 121 | 0.9 | 0.9 | 0.00 | 0.00 | 0.00 | 59 | 1012.1 |
| 20260505061852 | 59 | 153 | 1.7 | 1.7 | 0.00 | 0.00 | 0.00 | 59 | 1012.2 |
| 20260505061350 | 59 | 150 | 1.7 | 1.7 | 0.00 | 0.00 | 0.00 | 60 | 1012.3 |
| 20260505060848 | 59 | 138 | 0.9 | 0.9 | 0.00 | 0.00 | 0.00 | 59 | 1012.3 |
| 20260505060344 | 59 | 121 | 0.0 | 0.9 | 0.00 | 0.00 | 0.00 | 58 | 1012.4 |
| 20260505055840 | 60 | 122 | 0.9 | 0.9 | 0.00 | 0.00 | 0.00 | 58 | 1012.2 |
| 20260505055336 | 60 | 137 | 1.7 | 1.7 | 0.00 | 0.00 | 0.00 | 58 | 1012.3 |
| 20260505054834 | 60 | 134 | 0.9 | 1.7 | 0.00 | 0.00 | 0.00 | 57 | 1012.3 |
| 20260505054331 | 60 | 131 | 0.0 | 0.9 | 0.00 | 0.00 | 0.00 | 57 | 1012.5 |
| 20260505053829 | 60 | 159 | 2.6 | 2.6 | 0.00 | 0.00 | 0.00 | 56 | 1012.4 |
| 20260505053326 | 61 | 162 | 1.7 | 1.7 | 0.00 | 0.00 | 0.00 | 56 | 1012.4 |
| 20260505052822 | 61 | 156 | 2.6 | 3.5 | 0.00 | 0.00 | 0.00 | 56 | 1012.5 |
| 20260505052319 | 61 | 171 | 2.6 | 2.6 | 0.00 | 0.00 | 0.00 | 56 | 1012.6 |
| 20260505051817 | 61 | 115 | 3.5 | 3.5 | 0.00 | 0.00 | 0.00 | 55 | 1012.5 |
| 20260505051314 | 61 | 188 | 4.3 | 6.1 | 0.00 | 0.00 | 0.00 | 55 | 1012.6 |
| 20260505050812 | 61 | 142 | 2.6 | 2.6 | 0.00 | 0.00 | 0.00 | 55 | 1012.4 |
| 20260505050310 | 61 | 124 | 2.6 | 3.5 | 0.00 | 0.00 | 0.00 | 55 | 1012.5 |
| 20260505041740 | 62 | 178 | 3.5 | 5.2 | 0.00 | 0.00 | 0.00 | 54 | 1012.8 |
| 20260505041237 | 61 | 122 | 1.7 | 1.7 | 0.00 | 0.00 | 0.00 | 54 | 1012.9 |
| 20260505040734 | 61 | 143 | 0.9 | 0.9 | 0.00 | 0.00 | 0.00 | 54 | 1012.7 |
| 20260505040232 | 62 | 145 | 2.6 | 3.5 | 0.00 | 0.00 | 0.00 | 53 | 1012.8 |
| 20260505035729 | 62 | 133 | 4.3 | 7.0 | 0.00 | 0.00 | 0.00 | 53 | 1013.0 |
| 20260505035224 | 62 | 170 | 2.6 | 3.5 | 0.00 | 0.00 | 0.00 | 53 | 1012.7 |
| 20260505034721 | 62 | 178 | 5.2 | 7.0 | 0.00 | 0.00 | 0.00 | 53 | 1012.7 |
| 20260505034218 | 62 | 194 | 4.3 | 6.1 | 0.00 | 0.00 | 0.00 | 53 | 1012.7 |
| 20260505033715 | 62 | 161 | 5.2 | 6.1 | 0.00 | 0.00 | 0.00 | 53 | 1012.7 |
| 20260505033213 | 61 | 133 | 3.5 | 5.2 | 0.00 | 0.00 | 0.00 | 53 | 1012.9 |
| 20260505032711 | 61 | 175 | 5.2 | 6.1 | 0.00 | 0.00 | 0.00 | 53 | 1012.9 |
| 20260505032206 | 62 | 155 | 5.2 | 6.1 | 0.00 | 0.00 | 0.00 | 53 | 1012.7 |
| 20260505031704 | 62 | 171 | 5.2 | 6.1 | 0.00 | 0.00 | 0.00 | 53 | 1012.8 |
| 20260505031200 | 62 | 166 | 6.1 | 7.0 | 0.00 | 0.00 | 0.00 | 53 | 1012.6 |
| 20260505030657 | 61 | 126 | 3.5 | 3.5 | 0.00 | 0.00 | 0.00 | 54 | 1012.8 |
| 20260505030152 | 61 | 160 | 4.3 | 5.2 | 0.00 | 0.00 | 0.00 | 54 | 1012.8 |
| 20260505025649 | 61 | 157 | 3.5 | 3.5 | 0.00 | 0.00 | 0.00 | 54 | 1013.0 |
| 20260505025147 | 61 | 163 | 1.7 | 3.5 | 0.00 | 0.00 | 0.00 | 54 | 1012.8 |
| 20260505024644 | 61 | 178 | 3.5 | 3.5 | 0.00 | 0.00 | 0.00 | 54 | 1012.6 |
| 20260505024141 | 62 | 169 | 3.5 | 3.5 | 0.00 | 0.00 | 0.00 | 54 | 1012.7 |
| 20260505023639 | 62 | 166 | 2.6 | 2.6 | 0.00 | 0.00 | 0.00 | 54 | 1012.7 |
| 20260505023136 | 62 | 190 | 4.3 | 6.1 | 0.00 | 0.00 | 0.00 | 54 | 1012.9 |
| 20260505022634 | 62 | 162 | 2.6 | 2.6 | 0.00 | 0.00 | 0.00 | 54 | 1012.9 |
| 20260505022130 | 62 | 164 | 1.7 | 1.7 | 0.00 | 0.00 | 0.00 | 54 | 1013.0 |
| 20260505021627 | 62 | 156 | 0.0 | 0.9 | 0.00 | 0.00 | 0.00 | 53 | 1012.9 |
| 20260505021124 | 62 | 199 | 3.5 | 3.5 | 0.00 | 0.00 | 0.00 | 53 | 1012.7 |
| 20260505020619 | 62 | 115 | 0.9 | 0.9 | 0.00 | 0.00 | 0.00 | 52 | 1012.7 |
| 20260505020116 | 63 | 158 | 3.5 | 3.5 | 0.00 | 0.00 | 0.00 | 52 | 1012.7 |
| 20260505015613 | 63 | 169 | 2.6 | 2.6 | 0.00 | 0.00 | 0.00 | 51 | 1012.9 |
| 20260505015110 | 63 | 182 | 4.3 | 5.2 | 0.00 | 0.00 | 0.00 | 51 | 1012.7 |
| 20260505014606 | 63 | 101 | 0.9 | 1.7 | 0.00 | 0.00 | 0.00 | 51 | 1012.9 |
| 20260505014103 | 64 | 176 | 2.6 | 3.5 | 0.00 | 0.00 | 0.00 | 50 | 1012.9 |
| 20260505013601 | 64 | 180 | 4.3 | 5.2 | 0.00 | 0.00 | 0.00 | 49 | 1012.6 |
| 20260505013058 | 64 | 178 | 2.6 | 5.2 | 0.00 | 0.00 | 0.00 | 49 | 1012.6 |
| 20260505012556 | 64 | 160 | 3.5 | 3.5 | 0.00 | 0.00 | 0.00 | 49 | 1012.5 |
| 20260505012053 | 64 | 161 | 4.3 | 5.2 | 0.00 | 0.00 | 0.00 | 49 | 1012.6 |
| 20260505011548 | 64 | 166 | 2.6 | 3.5 | 0.00 | 0.00 | 0.00 | 48 | 1012.5 |
| 20260505011046 | 65 | 158 | 2.6 | 2.6 | 0.00 | 0.00 | 0.00 | 47 | 1012.4 |
| 20260505010541 | 65 | 164 | 4.3 | 5.2 | 0.00 | 0.00 | 0.00 | 45 | 1012.3 |
| 20260505010038 | 65 | 161 | 1.7 | 1.7 | 0.00 | 0.00 | 0.00 | 44 | 1012.3 |
| 20260505005534 | 65 | 173 | 3.5 | 3.5 | 0.00 | 0.00 | 0.00 | 43 | 1012.1 |
| 20260505005032 | 66 | 171 | 2.6 | 2.6 | 0.00 | 0.00 | 0.00 | 43 | 1012.1 |
| 20260505004529 | 66 | 165 | 2.6 | 2.6 | 0.00 | 0.00 | 0.00 | 43 | 1011.9 |
| 20260505004025 | 66 | 169 | 1.7 | 1.7 | 0.00 | 0.00 | 0.00 | 42 | 1011.9 |
| 20260505003522 | 67 | 163 | 1.7 | 1.7 | 0.00 | 0.00 | 0.00 | 41 | 1011.7 |
| 20260505003020 | 67 | 135 | 1.7 | 1.7 | 0.00 | 0.00 | 0.00 | 40 | 1011.5 |
| 20260505002520 | 68 | 151 | 1.7 | 1.7 | 0.00 | 0.00 | 0.00 | 39 | 1011.6 |
| 20260505002020 | 68 | 156 | 1.7 | 1.7 | 0.00 | 0.00 | 0.00 | 39 | 1011.6 |
| 20260505001517 | 68 | 156 | 2.6 | 3.5 | 0.00 | 0.00 | 0.00 | 39 | 1011.4 |
| 20260505001014 | 68 | 133 | 1.7 | 1.7 | 0.00 | 0.00 | 0.00 | 38 | 1011.3 |
| 20260505000511 | 68 | 119 | 0.0 | 0.9 | 0.00 | 0.00 | 0.00 | 38 | 1011.2 |
| 20260505000009 | 69 | 154 | 1.7 | 1.7 | 0.00 | 0.00 | 0.00 | 38 | 1011.1 |
| 20260504235505 | 69 | 164 | 3.5 | 5.2 | 0.00 | 0.00 | 0.00 | 38 | 1011.0 |
| 20260504235001 | 69 | 125 | 0.0 | 0.0 | 0.00 | 0.00 | 0.00 | 37 | 1011.1 |
| 20260504234459 | 69 | 113 | 0.0 | 0.0 | 0.00 | 0.00 | 0.00 | 37 | 1010.9 |
| 20260504233956 | 69 | 118 | 0.0 | 0.0 | 0.00 | 0.00 | 0.00 | 37 | 1010.9 |
| 20260504233451 | 70 | 174 | 2.6 | 3.5 | 0.00 | 0.00 | 0.00 | 37 | 1011.0 |
| 20260504232948 | 70 | 133 | 0.9 | 0.9 | 0.00 | 0.00 | 0.00 | 37 | 1010.8 |
| 20260504232445 | 70 | 124 | 0.9 | 0.9 | 0.00 | 0.00 | 0.00 | 37 | 1010.6 |
| 20260504231943 | 70 | 229 | 6.1 | 7.8 | 0.00 | 0.00 | 0.00 | 36 | 1010.8 |
| 20260504231439 | 70 | 253 | 7.8 | 11.3 | 0.00 | 0.00 | 0.00 | 36 | 1010.9 |
| 20260504230935 | 71 | 202 | 4.3 | 6.1 | 0.00 | 0.00 | 0.00 | 36 | 1010.5 |
| 20260504230432 | 71 | 126 | 1.7 | 2.6 | 0.00 | 0.00 | 0.00 | 36 | 1010.7 |
| 20260504225931 | 71 | 222 | 1.7 | 3.5 | 0.00 | 0.00 | 0.00 | 35 | 1010.3 |
| 20260504225427 | 71 | 173 | 3.5 | 5.2 | 0.00 | 0.00 | 0.00 | 35 | 1010.5 |
| 20260504224925 | 71 | 217 | 6.1 | 7.0 | 0.00 | 0.00 | 0.00 | 35 | 1010.2 |
| 20260504224421 | 72 | 151 | 2.6 | 3.5 | 0.00 | 0.00 | 0.00 | 35 | 1010.2 |
| 20260504223919 | 72 | 230 | 2.6 | 5.2 | 0.00 | 0.00 | 0.00 | 34 | 1010.3 |
| 20260504223414 | 72 | 188 | 1.7 | 2.6 | 0.00 | 0.00 | 0.00 | 34 | 1010.2 |
| 20260504222910 | 72 | 190 | 5.2 | 7.8 | 0.00 | 0.00 | 0.00 | 34 | 1010.3 |
| 20260504222408 | 72 | 178 | 3.5 | 5.2 | 0.00 | 0.00 | 0.00 | 34 | 1010.3 |
| 20260504221906 | 72 | 157 | 3.5 | 6.1 | 0.00 | 0.00 | 0.00 | 34 | 1010.5 |
| 20260504221402 | 72 | 252 | 5.2 | 7.0 | 0.00 | 0.00 | 0.00 | 34 | 1010.5 |
| 20260504220859 | 72 | 176 | 2.6 | 3.5 | 0.00 | 0.00 | 0.00 | 34 | 1010.5 |
| 20260504220356 | 72 | 295 | 5.2 | 6.1 | 0.00 | 0.00 | 0.00 | 34 | 1010.6 |
| 20260504215853 | 73 | 219 | 5.2 | 7.0 | 0.00 | 0.00 | 0.00 | 34 | 1010.6 |
| 20260504215349 | 73 | 135 | 7.0 | 9.6 | 0.00 | 0.00 | 0.00 | 34 | 1010.5 |
| 20260504214846 | 73 | 104 | 2.6 | 3.5 | 0.00 | 0.00 | 0.00 | 34 | 1010.7 |
| 20260504214343 | 73 | 201 | 3.5 | 3.5 | 0.00 | 0.00 | 0.00 | 33 | 1010.7 |
| 20260504213839 | 72 | 173 | 3.5 | 7.0 | 0.00 | 0.00 | 0.00 | 34 | 1010.8 |
| 20260504213335 | 72 | 218 | 9.6 | 11.3 | 0.00 | 0.00 | 0.00 | 33 | 1010.9 |
| 20260504212833 | 73 | 197 | 8.7 | 9.6 | 0.00 | 0.00 | 0.00 | 33 | 1010.8 |
| 20260504212329 | 73 | 251 | 5.2 | 7.8 | 0.00 | 0.00 | 0.00 | 34 | 1010.8 |
| 20260504211827 | 73 | 200 | 5.2 | 7.0 | 0.00 | 0.00 | 0.00 | 33 | 1010.8 |
| 20260504211327 | 73 | 254 | 7.0 | 8.7 | 0.00 | 0.00 | 0.00 | 33 | 1010.8 |
| 20260504210825 | 74 | 170 | 1.7 | 2.6 | 0.00 | 0.00 | 0.00 | 34 | 1011.1 |
| 20260504210322 | 74 | 235 | 4.3 | 5.2 | 0.00 | 0.00 | 0.00 | 33 | 1011.1 |
| 20260504205819 | 73 | 200 | 5.2 | 11.3 | 0.00 | 0.00 | 0.00 | 33 | 1011.1 |
| 20260504205317 | 73 | 154 | 6.1 | 7.8 | 0.00 | 0.00 | 0.00 | 33 | 1011.0 |
| 20260504204815 | 73 | 244 | 4.3 | 5.2 | 0.00 | 0.00 | 0.00 | 33 | 1011.0 |
| 20260504204313 | 73 | 184 | 6.1 | 7.0 | 0.00 | 0.00 | 0.00 | 33 | 1011.0 |
| 20260504203812 | 73 | 217 | 3.5 | 3.5 | 0.00 | 0.00 | 0.00 | 34 | 1011.1 |
| 20260504203309 | 73 | 248 | 3.5 | 5.2 | 0.00 | 0.00 | 0.00 | 33 | 1011.1 |
| 20260504202804 | 73 | 244 | 5.2 | 6.1 | 0.00 | 0.00 | 0.00 | 33 | 1011.0 |
| 20260504202301 | 73 | 155 | 1.7 | 2.6 | 0.00 | 0.00 | 0.00 | 32 | 1011.0 |
| 20260504201758 | 73 | 229 | 1.7 | 2.6 | 0.00 | 0.00 | 0.00 | 34 | 1011.1 |
| 20260504201255 | 73 | 206 | 1.7 | 3.5 | 0.00 | 0.00 | 0.00 | 33 | 1011.2 |
| 20260504200753 | 72 | 236 | 7.0 | 7.8 | 0.00 | 0.00 | 0.00 | 33 | 1011.2 |
| 20260504200249 | 73 | 199 | 7.8 | 8.7 | 0.00 | 0.00 | 0.00 | 33 | 1011.5 |
| 20260504195746 | 73 | 159 | 2.6 | 3.5 | 0.00 | 0.00 | 0.00 | 33 | 1011.2 |
| 20260504195241 | 72 | 210 | 10.4 | 13.9 | 0.00 | 0.00 | 0.00 | 32 | 1011.5 |
| 20260504194739 | 73 | 120 | 3.5 | 6.1 | 0.00 | 0.00 | 0.00 | 32 | 1011.5 |
| 20260504194235 | 74 | 207 | 5.2 | 6.1 | 0.00 | 0.00 | 0.00 | 34 | 1011.5 |
| 20260504193731 | 73 | 164 | 2.6 | 2.6 | 0.00 | 0.00 | 0.00 | 34 | 1011.6 |
| 20260504193229 | 72 | 230 | 4.3 | 5.2 | 0.00 | 0.00 | 0.00 | 33 | 1011.5 |
| 20260504192727 | 71 | 248 | 7.8 | 9.6 | 0.00 | 0.00 | 0.00 | 32 | 1011.6 |
| 20260504192225 | 73 | 153 | 5.2 | 7.8 | 0.00 | 0.00 | 0.00 | 34 | 1011.8 |
| 20260504191723 | 72 | 218 | 7.0 | 9.6 | 0.00 | 0.00 | 0.00 | 35 | 1011.8 |
| 20260504191220 | 72 | 178 | 4.3 | 6.1 | 0.00 | 0.00 | 0.00 | 33 | 1011.7 |
| 20260504190715 | 72 | 255 | 5.2 | 6.1 | 0.00 | 0.00 | 0.00 | 32 | 1011.8 |
| 20260504190212 | 71 | 106 | 4.3 | 6.1 | 0.00 | 0.00 | 0.00 | 33 | 1012.0 |
| 20260504185708 | 71 | 165 | 3.5 | 5.2 | 0.00 | 0.00 | 0.00 | 34 | 1011.9 |
| 20260504185205 | 70 | 230 | 8.7 | 9.6 | 0.00 | 0.00 | 0.00 | 33 | 1012.2 |
| 20260504184701 | 70 | 207 | 5.2 | 6.1 | 0.00 | 0.00 | 0.00 | 33 | 1012.1 |
| 20260504184156 | 71 | 192 | 10.4 | 13.0 | 0.00 | 0.00 | 0.00 | 34 | 1012.1 |
| 20260504183653 | 71 | 176 | 4.3 | 5.2 | 0.00 | 0.00 | 0.00 | 33 | 1012.2 |
| 20260504183150 | 71 | 223 | 2.6 | 3.5 | 0.00 | 0.00 | 0.00 | 34 | 1012.2 |
| 20260504182648 | 70 | 271 | 6.1 | 8.7 | 0.00 | 0.00 | 0.00 | 34 | 1012.5 |
| 20260504182145 | 69 | 209 | 10.4 | 12.2 | 0.00 | 0.00 | 0.00 | 35 | 1012.5 |
| 20260504181643 | 70 | 216 | 7.8 | 9.6 | 0.00 | 0.00 | 0.00 | 34 | 1012.4 |
| 20260504181140 | 69 | 179 | 4.3 | 7.0 | 0.00 | 0.00 | 0.00 | 36 | 1012.5 |
| 20260504180639 | 69 | 163 | 5.2 | 7.0 | 0.00 | 0.00 | 0.00 | 35 | 1012.8 |
| 20260504180138 | 69 | 270 | 5.2 | 7.0 | 0.00 | 0.00 | 0.00 | 34 | 1012.6 |
| 20260504175634 | 69 | 244 | 7.0 | 7.8 | 0.00 | 0.00 | 0.00 | 35 | 1012.7 |
| 20260504175131 | 69 | 264 | 5.2 | 7.8 | 0.00 | 0.00 | 0.00 | 35 | 1012.7 |
| 20260504174630 | 70 | 215 | 7.0 | 8.7 | 0.00 | 0.00 | 0.00 | 35 | 1012.7 |
| 20260504174125 | 69 | 194 | 3.5 | 7.0 | 0.00 | 0.00 | 0.00 | 35 | 1012.8 |
| 20260504173623 | 68 | 137 | 1.7 | 2.6 | 0.00 | 0.00 | 0.00 | 37 | 1012.7 |